Location: Adelaide
(34.9285°S, 138.6007°E)
Time: 11:12:35
(UTC+10:30)

Envisat - Pass Details

Date: 26 November 2019
Orbit: 764 x 766 km, 98.1° (Epoch: 09 December)

Event Time Altitude Azimuth Distance (km) Brightness Sun altitude
Rises 21:21:45 0° 189° (S) 3,268 7.0 -13.4°
Reaches altitude 10° 21:24:57 10° 209° (SSW) 2,332 6.6 -13.9°
Maximum altitude 21:27:56 16° 245° (WSW) 1,954 6.2 -14.4°
Drops below altitude 10° 21:30:53 10° 281° (W) 2,316 6.0 -14.9°
Sets 21:34:04 0° 302° (WNW) 3,233 6.5 -15.4°
